Grosse Ile, MI

7:56 AM EST on January 24, 2018 (GMT -0500)
Grosse Ile Municipal

Weather History for KONZ - September, 2012

Change the Weather History Date:

Sunday, September 23, 2012

  Actual Average (KDTW) Record (KDTW)
Temperature  
Mean Temperature 53 °F -  
Max Temperature 60 °F 67 °F 91 °F (2017)
Min Temperature 46 °F 48 °F 29 °F (1974)
Degree Days  
Heating Degree Days 12    
Growing Degree Days 3 (Base 50)    
Moisture  
Dew Point 42 °F    
Average Humidity 71    
Maximum Humidity 93    
Minimum Humidity 42    
Precipitation  
Precipitation 0.00 in - - ()
Sea Level Pressure  
Sea Level Pressure 30.14 in    
Wind  
Wind Speed 5 mph (West)    
Max Wind Speed 13 mph    
Max Gust Speed 18 mph    
Visibility 10 miles    
Events Rain    
Averages and records for this station are not official NWS values.
T = Trace of Precipitation, MM = Missing Value Source: NWS Daily Summary

Daily Weather History Graph

Daily Weather History Graph

Search for Another Location

Airport or City:

Trip Planner

Search our weather history database for the weather conditions in past years. The results will help you decide how hot, cold, wet, or windy it might be!

Date:

Astronomy

Sep. 23, 2012 Rise Set
Actual Time 7:21 AM EDT 7:27 PM EDT
Civil Twilight 6:53 AM EDT 7:55 PM EDT
Nautical Twilight 6:21 AM EDT 8:27 PM EDT
Astronomical Twilight 5:47 AM EDT 9:00 PM EDT
Moon 3:33 PM EDT (9/23) 12:26 AM EDT (9/23)
Length of Visible Light 13h 01m
Length of Day
12h 05m
First Quarter, 60% of the Moon is Illuminated
Sep 23
First Quarter
Sep 29
Full
Oct 8
Last Quarter
Oct 15
New
Oct 21
First Quarter

Hourly Weather History & Observations

Time (EDT) Temp. Windchill Dew Point Humidity Pressure Visibility Wind Dir Wind Speed Gust Speed Precip Events Conditions
12:14 AM 48.2 °F - 44.6 °F 87% 30.08 in 10.0 mi WSW 5.8 mph - N/A   Clear
12:34 AM 46.4 °F 44.3 °F 44.6 °F 93% 30.08 in 10.0 mi West 4.6 mph - N/A   Clear
12:54 AM 46.4 °F 45.2 °F 44.6 °F 93% 30.08 in 10.0 mi West 3.5 mph - N/A   Clear
1:14 AM 46.4 °F 43.5 °F 44.6 °F 93% 30.08 in 10.0 mi WSW 5.8 mph - N/A   Scattered Clouds
1:34 AM 46.4 °F 43.5 °F 44.6 °F 93% 30.08 in 10.0 mi WSW 5.8 mph - N/A   Mostly Cloudy
1:54 AM 46.4 °F 43.5 °F 44.6 °F 93% 30.08 in 10.0 mi WSW 5.8 mph - N/A   Scattered Clouds
2:14 AM 46.4 °F - 44.6 °F 93% 30.09 in 10.0 mi Calm Calm - N/A   Mostly Cloudy
2:34 AM 46.4 °F 45.2 °F 44.6 °F 93% 30.09 in 10.0 mi West 3.5 mph - N/A   Overcast
2:54 AM 46.4 °F - 44.6 °F 93% 30.09 in 10.0 mi Calm Calm - N/A   Overcast
3:14 AM 48.2 °F - 46.4 °F 93% 30.09 in 10.0 mi West 3.5 mph - N/A   Overcast
3:34 AM 48.2 °F - 46.4 °F 93% 30.10 in 10.0 mi West 4.6 mph - N/A   Overcast
3:54 AM 48.2 °F - 44.6 °F 87% 30.10 in 10.0 mi West 5.8 mph - N/A   Overcast
4:14 AM 48.2 °F - 44.6 °F 87% 30.10 in 10.0 mi Calm Calm - N/A   Overcast
4:34 AM 48.2 °F - 44.6 °F 87% 30.10 in 10.0 mi WNW 4.6 mph - N/A   Overcast
4:54 AM 48.2 °F - 44.6 °F 87% 30.10 in 10.0 mi NW 4.6 mph - N/A   Overcast
5:15 AM 48.2 °F - 44.6 °F 87% 30.10 in 10.0 mi Calm Calm - N/A   Overcast
5:34 AM 48.2 °F - 44.6 °F 87% 30.11 in 10.0 mi NW 3.5 mph - N/A   Overcast
5:54 AM 48.2 °F - 44.6 °F 87% 30.11 in 10.0 mi Calm Calm - N/A   Overcast
6:15 AM 48.2 °F - 44.6 °F 87% 30.12 in 10.0 mi West 4.6 mph - N/A   Mostly Cloudy
6:34 AM 48.2 °F - 44.6 °F 87% 30.13 in 10.0 mi Calm Calm - N/A   Overcast
6:54 AM 46.4 °F 44.3 °F 44.6 °F 93% 30.13 in 10.0 mi West 4.6 mph - N/A   Overcast
7:14 AM 46.4 °F 44.3 °F 44.6 °F 93% 30.13 in 10.0 mi West 4.6 mph - N/A   Scattered Clouds
7:34 AM 46.4 °F 45.2 °F 42.8 °F 87% 30.14 in 10.0 mi West 3.5 mph - N/A   Clear
7:55 AM 46.4 °F 45.2 °F 44.6 °F 93% 30.14 in 10.0 mi West 3.5 mph - N/A   Clear
8:14 AM 48.2 °F - 44.6 °F 87% 30.14 in 5.0 mi West 3.5 mph - N/A   Clear
8:34 AM 48.2 °F - 44.6 °F 87% 30.14 in 10.0 mi West 3.5 mph - N/A   Clear
8:54 AM 50.0 °F - 46.4 °F 87% 30.15 in 10.0 mi West 5.8 mph - N/A   Clear
9:14 AM 50.0 °F - 46.4 °F 87% 30.16 in 10.0 mi West 5.8 mph - N/A   Scattered Clouds
9:34 AM 51.8 °F - 46.4 °F 82% 30.16 in 10.0 mi West 9.2 mph - N/A   Clear
9:54 AM 53.6 °F - 46.4 °F 77% 30.16 in 10.0 mi West 4.6 mph - N/A   Mostly Cloudy
10:14 AM 53.6 °F - 44.6 °F 72% 30.16 in 10.0 mi West 4.6 mph - N/A   Mostly Cloudy
10:34 AM 55.4 °F - 44.6 °F 67% 30.16 in 10.0 mi West 9.2 mph - N/A   Scattered Clouds
10:54 AM 55.4 °F - 42.8 °F 63% 30.16 in 10.0 mi WSW 8.1 mph - N/A   Scattered Clouds
11:14 AM 57.2 °F - 42.8 °F 59% 30.16 in 10.0 mi West 8.1 mph - N/A   Mostly Cloudy
11:35 AM 57.2 °F - 42.8 °F 59% 30.16 in 10.0 mi West 8.1 mph - N/A   Overcast
11:54 AM 55.4 °F - 41.0 °F 58% 30.16 in 10.0 mi West 10.4 mph - N/A   Overcast
12:14 PM 59.0 °F - 42.8 °F 55% 30.16 in 10.0 mi WNW 8.1 mph - N/A   Mostly Cloudy
12:35 PM 55.4 °F - 39.2 °F 54% 30.16 in 10.0 mi West 10.4 mph - N/A   Overcast
12:54 PM 57.2 °F - 39.2 °F 51% 30.15 in 10.0 mi WNW 12.7 mph 18.4 mph N/A   Overcast
1:14 PM 59.0 °F - 39.2 °F 48% 30.15 in 10.0 mi West 10.4 mph - N/A   Mostly Cloudy
1:34 PM 59.0 °F - 39.2 °F 48% 30.15 in 10.0 mi West 10.4 mph - N/A   Scattered Clouds
1:54 PM 60.8 °F - 39.2 °F 45% 30.14 in 10.0 mi WNW 8.1 mph 16.1 mph N/A   Scattered Clouds
2:14 PM 57.2 °F - 37.4 °F 48% 30.15 in 10.0 mi West 9.2 mph - N/A   Mostly Cloudy
2:34 PM 57.2 °F - 39.2 °F 51% 30.15 in 10.0 mi West 9.2 mph - N/A   Mostly Cloudy
2:55 PM 57.2 °F - 39.2 °F 51% 30.15 in 10.0 mi West 8.1 mph - N/A   Mostly Cloudy
3:14 PM 59.0 °F - 37.4 °F 45% 30.14 in 10.0 mi West 11.5 mph 16.1 mph N/A   Mostly Cloudy
3:34 PM 59.0 °F - 39.2 °F 48% 30.14 in 10.0 mi WNW 11.5 mph 17.3 mph N/A   Overcast
3:55 PM 57.2 °F - 39.2 °F 51% 30.15 in 10.0 mi West 9.2 mph - N/A   Overcast
4:14 PM 57.2 °F - 37.4 °F 48% 30.15 in 10.0 mi West 9.2 mph - N/A   Overcast
4:34 PM 57.2 °F - 37.4 °F 48% 30.14 in 10.0 mi West 6.9 mph - N/A   Overcast
4:54 PM 57.2 °F - 37.4 °F 48% 30.14 in 10.0 mi West 6.9 mph - N/A   Overcast
5:14 PM 57.2 °F - 35.6 °F 44% 30.14 in 10.0 mi West 10.4 mph - N/A   Overcast
5:34 PM 59.0 °F - 35.6 °F 42% 30.14 in 10.0 mi West 8.1 mph - N/A   Overcast
5:54 PM 57.2 °F - 37.4 °F 48% 30.14 in 10.0 mi WNW 4.6 mph - N/A   Overcast
6:14 PM 57.2 °F - 35.6 °F 44% 30.14 in 10.0 mi WNW 3.5 mph - N/A   Overcast
6:34 PM 57.2 °F - 37.4 °F 48% 30.14 in 10.0 mi WNW 5.8 mph - N/A   Overcast
6:54 PM 57.2 °F - 37.4 °F 48% 30.15 in 10.0 mi WNW 4.6 mph - N/A   Overcast
7:14 PM 55.4 °F - 39.2 °F 54% 30.15 in 10.0 mi West 5.8 mph - N/A   Light Drizzle
7:33 PM 53.6 °F - 42.8 °F 67% 30.15 in 10.0 mi SW 9.2 mph - N/A Rain Light Rain
7:54 PM 53.6 °F - 42.8 °F 67% 30.16 in 10.0 mi WSW 6.9 mph - N/A   Overcast
8:14 PM 53.6 °F - 42.8 °F 67% 30.16 in 10.0 mi WSW 4.6 mph - N/A   Overcast
8:34 PM 53.6 °F - 42.8 °F 67% 30.17 in 10.0 mi WSW 6.9 mph - N/A   Overcast
8:54 PM 51.8 °F - 42.8 °F 71% 30.18 in 10.0 mi NW 6.9 mph - N/A   Overcast
9:15 PM 53.6 °F - 42.8 °F 67% 30.18 in 10.0 mi WNW 3.5 mph - N/A   Mostly Cloudy
9:34 PM 51.8 °F - 41.0 °F 67% 30.19 in 10.0 mi NW 4.6 mph - N/A   Scattered Clouds
9:54 PM 51.8 °F - 41.0 °F 67% 30.19 in 10.0 mi NW 4.6 mph - N/A   Scattered Clouds
10:15 PM 51.8 °F - 41.0 °F 67% 30.20 in 10.0 mi NNW 3.5 mph - N/A   Mostly Cloudy
10:34 PM 51.8 °F - 42.8 °F 71% 30.20 in 10.0 mi NW 5.8 mph - N/A   Overcast
10:54 PM 50.0 °F - 41.0 °F 71% 30.20 in 10.0 mi NW 5.8 mph - N/A   Mostly Cloudy
11:14 PM 48.2 °F - 41.0 °F 76% 30.20 in 10.0 mi WNW 3.5 mph - N/A   Scattered Clouds
11:34 PM 48.2 °F - 41.0 °F 76% 30.20 in 10.0 mi WNW 3.5 mph - N/A   Clear
11:54 PM 48.2 °F - 41.0 °F 76% 30.21 in 10.0 mi WNW 4.6 mph - N/A   Clear